Regional Weather Roundup
Issued by NWS Cleveland, OH

Home | Current Version | Previous Version | Text Only | Print | Product List | Glossary Off
Versions: 1 2 3 4 5 6 7 8 9 10 11 12 13 14 15 16 17 18 19 20 21 22 23 24 25 26 27 28 29 30 31 32 33 34 35 36 37 38 39 40 41 42 43 44 45 46 47 48 49 50

000
ASUS41 KCLE 301102
RWRCLE
OHIO REGIONAL WEATHER ROUNDUP
NATIONAL WEATHER SERVICE CLEVELAND, OH
700 AM EDT SAT APR 30 2016

NOTE: "FAIR" INDICATES FEW OR NO CLOUDS BELOW 12,000 FEET WITH NO
SIGNIFICANT WEATHER AND/OR OBSTRUCTIONS TO VISIBILITY.

OHZ001>008-015>018-024>027-034-035-043-044-301200-
   NORTHWEST OHIO

CITY           SKY/WX    TMP DP  RH WIND       PRES   REMARKS
DEFIANCE       MOCLDY    43  36  76 E6        30.11F
FINDLAY        CLOUDY    41  35  79 E9        30.10S
TOLEDO EXPRESS CLOUDY    37  36  96 CALM      30.12F
TOLEDO EXEC    PTCLDY    40  35  83 E3        30.14S
LIMA           PTCLDY    41  38  89 E9        30.09R
$$

OHZ009>014-019>023-028>033-038-089-301200-
   NORTHEAST OHIO

CITY           SKY/WX    TMP DP  RH WIND       PRES   REMARKS
CLE-HOPKINS    CLEAR     40  36  86 E5        30.17R
CLE-LAKEFRONT  CLEAR     42  34  73 E5        30.15R
CUY CO. ARPT   PTCLDY    39  34  81 SE6       30.16
LORAIN-ELYRIA  CLEAR     37  35  92 E3        30.15R FOG
ASHTABULA      CLOUDY    36  35  96 S5        30.17R
AKRON-CANTON   CLOUDY    39  36  89 E7        30.13R FOG
WOOSTER        CLEAR     36  35  96 E7        30.13S FOG
MANSFIELD      CLOUDY    38  37  97 E7        30.11S
YOUNGSTOWN     CLOUDY    40  38  93 E6        30.15R FOG
$$

OHZ042-051>053-060>062-070>072-077>081-301200-
  SOUTHWEST OHIO

CITY           SKY/WX    TMP DP  RH WIND       PRES   REMARKS
CINC-COVINGTON CLOUDY    53  47  79 E8        30.02S
CINC-LUNKEN    LGT RAIN  53  49  86 NE6       30.04S
HAMILTON       CLOUDY    53  45  74 NE8       30.04F
DAYTON         MOCLDY    47  42  83 E9        30.07R
WRIGHT-PAT AFB CLOUDY    48  44  85 E6        30.07R
DAYTON GENERAL CLOUDY    50  42  74 E6        30.05S
WILMINGTON     CLOUDY    48  44  86 E8        30.04S
$$

OHZ036-037-039>041-045>050-054>059-063>069-073>076-082>088-301200-
  CENTRAL AND SOUTHEAST OHIO

CITY           SKY/WX    TMP DP  RH WIND       PRES   REMARKS
COLUMBUS       CLOUDY    44  42  93 E10       30.09S
OSU AIRPORT    CLOUDY    45  42  89 E9        30.09S
BOLTON FIELD   NOT AVBL
RICKENBACK AFB NOT AVBL
NEWARK         CLOUDY    47  42  83 E6        30.10S
MARION         PTCLDY    38  36  92 E3        30.11R FOG
LANCASTER      CLOUDY    47  42  83 E9        30.09S
ZANESVILLE     CLOUDY    49  43  80 NE6       30.09F
NEW PHILLY     CLOUDY    41  38  89 E8        30.14S
$$




USA.gov is the U.S. government's official web portal to all federal, state and local government web resources and services.